GW3607 Weather Reports


time (UTC)temp
C
wind
direction
speed
KPH
gust
KPH
rain 1hr
cm
rain 24hr
cm
rain mn
cm
humidity
%
barometer
mb
20260505041548 21 0 1.6 8.0 0.00 0.00 0.00 56 1026.0
20260505041039 21 338 3.2 11.3 0.00 0.00 0.00 58 1026.2
20260505040535 20 47 3.2 11.3 0.00 0.00 0.00 60 1026.1
20260505040059 20 81 1.6 12.9 0.00 0.00 0.00 58 1026.2
20260505035535 20 82 1.6 14.5 0.00 0.00 0.00 59 1026.3
20260505035037 20 87 6.4 14.5 0.00 0.00 0.00 60 1026.5
20260505034544 19 53 4.8 14.5 0.00 0.00 0.00 60 1026.5
20260505034035 19 90 6.4 12.9 0.00 0.00 0.00 61 1026.6
20260505033535 20 62 1.6 12.9 0.00 0.00 0.00 61 1026.6
20260505033100 20 64 1.6 12.9 0.00 0.00 0.00 60 1026.7
20260505032535 19 42 4.8 12.9 0.00 0.00 0.00 62 1026.7
20260505032036 19 37 1.6 12.9 0.00 0.00 0.00 63 1026.8
20260505031551 18 99 3.2 14.5 0.00 0.00 0.00 62 1026.7
20260505031034 18 74 3.2 14.5 0.00 0.00 0.00 64 1026.8
20260505030534 18 68 4.8 14.5 0.00 0.00 0.00 64 1026.7
20260505030043 18 121 3.2 12.9 0.00 0.00 0.00 64 1026.7
20260505025534 18 79 4.8 16.1 0.00 0.00 0.00 65 1026.8
20260505025038 17 337 6.4 17.7 0.00 0.00 0.00 66 1026.8
20260505024543 17 38 4.8 17.7 0.00 0.00 0.00 66 1026.8
20260505024035 17 12 4.8 19.3 0.00 0.00 0.00 67 1026.8
20260505023535 17 43 8.0 20.9 0.00 0.00 0.00 68 1026.7
20260505023043 17 68 8.0 20.9 0.00 0.00 0.00 68 1026.8
20260505022535 16 41 6.4 17.7 0.00 0.00 0.00 68 1026.8
20260505022035 16 95 8.0 17.7 0.00 0.00 0.00 69 1026.8
20260505021539 16 44 8.0 17.7 0.00 0.00 0.00 69 1026.7
20260505021035 16 62 8.0 17.7 0.00 0.00 0.00 70 1026.7
20260505020534 16 102 8.0 19.3 0.00 0.00 0.00 71 1026.8
20260505020042 16 81 8.0 22.5 0.00 0.00 0.00 71 1026.8
20260505015534 16 56 8.0 22.5 0.00 0.00 0.00 70 1026.8
20260505015034 15 91 9.7 24.1 0.00 0.00 0.00 71 1026.8
20260505014546 15 64 9.7 24.1 0.00 0.00 0.00 71 1026.7
20260505014035 15 74 9.7 24.1 0.00 0.00 0.00 71 1026.8
20260505013534 15 64 9.7 20.9 0.00 0.00 0.00 71 1026.7
20260505013043 15 56 4.8 20.9 0.00 0.00 0.00 72 1026.7
20260505012535 15 70 9.7 20.9 0.00 0.00 0.00 72 1026.8
20260505012037 15 74 8.0 24.1 0.00 0.00 0.00 72 1026.7
20260505011551 15 73 11.3 24.1 0.00 0.00 0.00 72 1026.7
20260505011034 14 83 11.3 27.4 0.00 0.00 0.00 73 1026.7
20260505010535 14 92 12.9 27.4 0.00 0.00 0.00 73 1026.7
20260505010050 14 101 11.3 22.5 0.00 0.00 0.00 73 1026.9
20260505005535 13 70 9.7 24.1 0.00 0.00 0.00 74 1026.8
20260505005035 13 81 11.3 29.0 0.00 0.00 0.00 74 1026.9
20260505004538 13 87 8.0 29.0 0.00 0.00 0.00 75 1026.8
20260505004034 13 80 12.9 32.2 0.00 0.00 0.00 75 1026.8
20260505003534 13 43 14.5 32.2 0.00 0.00 0.00 75 1026.7
20260505003039 13 145 14.5 27.4 0.00 0.00 0.00 76 1026.9
20260505002534 12 72 12.9 32.2 0.00 0.00 0.00 77 1026.6
20260505002035 12 30 14.5 38.6 0.00 0.00 0.00 77 1026.6
20260505001542 12 43 14.5 38.6 0.00 0.00 0.00 78 1026.4
20260505001034 12 77 12.9 29.0 0.00 0.00 0.00 80 1026.4
20260505000534 11 88 12.9 25.7 0.00 0.00 0.00 81 1026.5
20260505000049 11 84 11.3 25.7 0.00 0.00 0.00 81 1026.2
20260504235535 11 79 11.3 29.0 0.00 0.00 0.00 82 1026.4
20260504235035 11 105 11.3 29.0 0.00 0.00 0.00 82 1026.2
20260504234552 11 120 11.3 25.7 0.00 0.00 0.00 82 1026.1
20260504234034 11 122 14.5 27.4 0.00 0.00 0.00 82 1026.1
20260504233535 11 79 12.9 27.4 0.00 0.00 0.00 83 1026.1
20260504233049 11 70 12.9 30.6 0.00 0.00 0.00 83 1026.1
20260504232535 11 93 9.7 30.6 0.00 0.00 0.00 83 1026.1
20260504232034 11 102 12.9 24.1 0.00 0.00 0.00 83 1026.0
20260504231543 11 78 11.3 29.0 0.00 0.00 0.00 83 1025.9
20260504231034 11 64 12.9 29.0 0.00 0.00 0.00 83 1025.9
20260504230535 10 105 12.9 27.4 0.00 0.00 0.00 83 1025.7
20260504230044 10 120 12.9 27.4 0.00 0.00 0.00 83 1025.7
20260504225535 10 89 12.9 29.0 0.00 0.00 0.00 83 1025.6
20260504225034 10 109 14.5 29.0 0.00 0.00 0.00 83 1025.5
20260504224542 10 85 12.9 27.4 0.00 0.00 0.00 83 1025.3
20260504224036 10 107 12.9 29.0 0.00 0.00 0.00 83 1025.3
20260504223535 10 101 12.9 29.0 0.00 0.00 0.00 83 1025.2
20260504223043 11 95 16.1 29.0 0.00 0.00 0.00 83 1025.1
20260504222534 11 88 11.3 27.4 0.00 0.00 0.00 83 1025.2
20260504222034 11 77 14.5 25.7 0.00 0.00 0.00 83 1025.1
20260504221542 11 77 12.9 29.0 0.00 0.00 0.00 83 1025.1
20260504221034 11 104 14.5 29.0 0.00 0.00 0.00 83 1025.0
20260504220534 11 58 14.5 29.0 0.00 0.00 0.00 83 1025.0
20260504220056 11 88 14.5 29.0 0.00 0.00 0.00 83 1025.1
20260504215534 11 77 16.1 29.0 0.00 0.00 0.00 83 1025.1
20260504215037 11 96 14.5 30.6 0.00 0.00 0.00 83 1025.1
20260504214547 11 123 12.9 30.6 0.00 0.00 0.00 83 1025.0
20260504214035 11 90 14.5 32.2 0.00 0.00 0.00 83 1025.0
20260504213535 11 104 14.5 32.2 0.00 0.00 0.00 83 1025.0
20260504213101 11 47 9.7 25.7 0.00 0.00 0.00 83 1025.2
20260504212535 11 81 12.9 27.4 0.00 0.00 0.00 83 1025.0
20260504212035 11 87 11.3 27.4 0.00 0.00 0.00 83 1025.1
20260504211544 11 60 11.3 24.1 0.00 0.00 0.00 83 1025.2
20260504211034 11 88 11.3 24.1 0.00 0.00 0.00 82 1025.0
20260504210534 11 102 11.3 24.1 0.00 0.00 0.00 82 1025.2
20260504210043 11 58 11.3 24.1 0.00 0.00 0.00 82 1025.1
20260504205536 11 112 12.9 25.7 0.00 0.00 0.00 82 1025.0
20260504205034 11 129 12.9 25.7 0.00 0.00 0.00 82 1025.2
20260504204545 11 60 11.3 25.7 0.00 0.00 0.00 82 1025.1
20260504204037 11 126 12.9 24.1 0.00 0.00 0.00 82 1025.0
20260504203535 11 80 11.3 24.1 0.00 0.00 0.00 82 1025.1
20260504203047 11 121 11.3 29.0 0.00 0.00 0.00 82 1025.0
20260504202535 11 121 11.3 29.0 0.00 0.00 0.00 82 1025.0
20260504202035 11 69 9.7 22.5 0.00 0.00 0.00 82 1025.0
20260504201544 11 111 11.3 24.1 0.00 0.00 0.00 82 1025.0
20260504201035 11 72 11.3 30.6 0.00 0.00 0.00 82 1025.0
20260504200535 11 104 11.3 30.6 0.00 0.00 0.00 82 1025.0
20260504200053 11 77 8.0 20.9 0.00 0.00 0.00 82 1025.0
20260504195535 11 133 9.7 22.5 0.00 0.00 0.00 82 1025.0
20260504195034 11 99 8.0 22.5 0.00 0.00 0.00 82 1025.0
20260504194556 11 56 9.7 22.5 0.00 0.00 0.00 82 1024.8
20260504194035 11 100 9.7 25.7 0.00 0.00 0.00 82 1025.0
20260504193535 11 96 11.3 25.7 0.00 0.00 0.00 81 1025.0
20260504193103 11 89 12.9 27.4 0.00 0.00 0.00 82 1024.9
20260504192534 11 101 12.9 27.4 0.00 0.00 0.00 81 1024.9
20260504192038 11 112 9.7 25.7 0.00 0.00 0.00 81 1024.8
20260504191549 11 108 9.7 25.7 0.00 0.00 0.00 81 1024.7
20260504191035 11 122 14.5 29.0 0.00 0.00 0.00 81 1024.7
20260504190534 11 109 12.9 29.0 0.00 0.00 0.00 81 1024.8
20260504190049 11 80 11.3 25.7 0.00 0.00 0.00 81 1024.9
20260504185541 11 89 11.3 25.7 0.00 0.00 0.00 81 1024.8
20260504185036 11 103 11.3 25.7 0.00 0.00 0.00 81 1024.9
20260504184551 11 110 11.3 25.7 0.00 0.00 0.00 80 1025.0
20260504184037 12 100 11.3 25.7 0.00 0.00 0.00 80 1025.1
20260504183539 12 89 12.9 27.4 0.00 0.00 0.00 80 1025.0
20260504183057 12 93 12.9 30.6 0.00 0.00 0.00 80 1025.0
20260504182536 12 75 12.9 30.6 0.00 0.00 0.00 80 1025.0
20260504182036 12 120 9.7 24.1 0.00 0.00 0.00 80 1025.0
20260504181551 12 108 11.3 24.1 0.00 0.00 0.00 80 1025.2
20260504181036 12 112 9.7 22.5 0.00 0.00 0.00 80 1025.1
20260504180536 12 145 11.3 27.4 0.00 0.00 0.00 80 1025.2
20260504180130 12 175 11.3 27.4 0.00 0.00 0.00 80 1025.1
20260504175539 12 114 9.7 24.1 0.00 0.00 0.00 80 1025.0
20260504175036 12 102 11.3 22.5 0.00 0.00 0.00 80 1025.1
20260504174550 12 118 11.3 25.7 0.00 0.00 0.00 80 1025.2
20260504174036 12 118 11.3 25.7 0.00 0.00 0.00 80 1025.2
20260504173537 12 92 11.3 27.4 0.00 0.00 0.00 80 1025.2
20260504173050 12 79 11.3 27.4 0.00 0.00 0.00 80 1025.2
20260504172536 12 120 9.7 24.1 0.00 0.00 0.00 80 1025.2
20260504172038 12 129 9.7 24.1 0.00 0.00 0.00 80 1025.2
20260504171552 12 105 9.7 24.1 0.00 0.00 0.00 80 1025.3
20260504171036 12 88 9.7 24.1 0.00 0.00 0.00 79 1025.3
20260504170537 12 87 11.3 24.1 0.00 0.00 0.00 79 1025.3
20260504151036 12 88 6.4 17.7 0.00 0.00 0.00 77 1026.0
20260504150539 12 106 6.4 16.1 0.00 0.00 0.00 76 1026.0
20260504141036 13 137 4.8 17.7 0.00 0.00 0.00 75 1026.0
20260504140536 13 66 4.8 17.7 0.00 0.00 0.00 75 1026.0
20260504130537 14 95 3.2 17.7 0.00 0.00 0.00 73 1026.0
20260504110536 15 129 1.6 8.0 0.00 0.00 0.00 72 1026.2
20260504100536 15 0 0.0 1.6 0.00 0.00 0.00 72 1025.5
20260504100114 16 145 0.0 1.6 0.00 0.00 0.00 72 1025.4
20260504081538 20 206 0.0 6.4 0.00 0.00 0.00 59 1025.2
20260504081035 20 89 0.0 4.8 0.00 0.00 0.00 57 1025.2
20260504080535 21 0 0.0 4.8 0.00 0.00 0.00 58 1025.3
20260504050536 20 0 0.0 4.8 0.00 0.00 0.00 61 1026.0
20260504045535 19 0 1.6 6.4 0.00 0.00 0.00 64 1026.3